OBJECT E, 68695

Orbit data source: Space-Track

You're viewing an Uncataloged Satellite

Recently launched and/or uncataloged satellites may have evolving metadata. Metadata may include but not limited to: Owner, Maufacturer, Bus, Motor, and Mission.

OBJECT E, 68695 is a satellite owned by Changguang WJ (CN) in SSO that was launched on Tue, 14 Apr 2026 UTC via a LIJIAN-1 launch vehicle from the Jiuquan Satellite Launch Center, China (JSC). Unknown objects in Earth's orbit typically refer to objects detected orbiting the Earth but have not yet been identified or cataloged. These objects could be anything from previously untracked satellites, spent rocket stages, debris from satellite collisions, or even natural meteoroids temporarily captured by Earth's gravity.

Loading next visibility...
Identifier
68695, 2026-080E
Orbit
SSO
Country
Flag of CNCN / PRC
Related business
Manufacturer
Changguang WJ
Mission
Operational spacecraft
Bus & Motor
JL-1GF07, Unknown motor
Mass
~50 kg wet, ~50 kg dry
Launch date (UTC)
2026-04-14 (2 months ago)
Launch vehicle
LIJIAN-1
Launch site
Jiuquan Satellite Launch Center, China (JSC)
Object type
Unknown
Shape & HBR
Unknown shape, 1.1 m
Radar Cross Section
Large (>1 m²)

Expand to show TLE details & history
Last TLE update: 9 hours ago

TLE from 9 hours ago
0 OBJECT E
1 68695U 26080E   26150.81108157  .00008117  00000-0  50396-3 0  9998
2 68695  97.6653 226.4474 0017454 120.3364 239.9594 15.09829704  7004
Epoch: 2026-05-30T19:27Z
TLE epoch observation values (Epoch: 2026-05-30T19:27:57.447Z)
Latitude
-0.00001°
Longitude
46.13628°
Altitude
545.848 km
Speed
7.586 km/s
True Right ascension
15h 05m 47s
True Declination
0° 00' 00"
Sunlit
Object was in full shadow at epoch
Visualization orbit readout
Latitude
Unknown
Longitude
Unknown
Altitude
Unknown
Speed
Unknown
Apparent Right ascension
Unknown
Apparent Declination
Unknown
Sunlit
N/A
Visualization observer readout
Local Sidereal Time
14:24:44
Azimuth
Unknown
Elevation
Unknown
Doppler factor
Unknown
Orbital elements
Apogee altitude
545.774 km
Perigee altitude
521.647 km
Semi-major axis
6,911.848 km
Eccentricity
0.00175
Inclination
97.6653°
RAAN
226.4474°
Arg. of periapsis
120.3364°
True anomaly
239.78645°
Mean anomaly
239.9594°
Eccentric anomaly
239.87291°
Mean motion
3.77704 °/min
Orbital period
95.31 mins
BSTAR
0.00050396
Loading maneuver chart data...
Computing Atmospheric mass density...
Loading historical data...
Loading historical data...
Loading historical data...
Loading historical data...
Loading historical data...
Loading historical data...
Loading historical data...

Documentation

Showing up to 5 results
|